Location: Pitton
(51.0667°N, 1.7000°W)
Time: 17:27:36
(UTC+00:00)

Spot 2 Rocket - Pass Details

Date: 17 September 2019
Orbit: 757 x 772 km, 98.6° (Epoch: 14 October)

Event Time Altitude Azimuth Distance (km) Brightness Sun altitude
Exits shadow 21:00:19 52° 192° (SSW) 948 3.7 -24.4°
Maximum altitude 21:01:29 71° 256° (WSW) 804 3.6 -24.6°
Drops below altitude 10° 21:06:33 10° 341° (NNW) 2,300 6.7 -25.2°
Sets 21:08:52 0° 344° (NNW) 3,230 7.6 -25.5°
